730  
ASUS44 KFWD 231415  
RWRTX  
NORTH TEXAS HOURLY WEATHER ROUNDUP  
NATIONAL WEATHER SERVICE FORT WORTH TX  
800 AM CST THU NOV 23 2017  
 
NOTE: "FAIR" INDICATES FEW OR NO CLOUDS BELOW 12,000 FEET WITH NO  
SIGNIFICANT WEATHER AND/OR S TO VISIBILITY
.  
 
TXZ118-119-231500-  
DALLAS/FORT WORTH METROPLEX  
 
CITY SKY/WX TMP DP RH WIND PRES REMARKS
 
DFW AIRPORT PTCLDY 39 33 79 S5 30.18R WCI 36  
DALLAS LOVE PTCLDY 42 33 70 CALM 30.21R  
FTW MEACHAM PTCLDY 38 30 73 CALM 30.19R  
DAL-EXECUTIVE PTCLDY 41 32 70 CALM 30.19R  
FTW-ALLIANCE PTCLDY 35 33 92 CALM 30.18S  
FTW-NAS-JRB PTCLDY 38 27 64 CALM 30.20R  
FTW-SPINKS CLEAR 32 28 86 CALM 30.21R  
ARLINGTON PTCLDY 35 31 85 CALM 30.20R  
GRAND PRAIRIE CLEAR 37 28 70 CALM 30.21S  
ADDISON CLEAR 41 32 70 CALM 30.21R  
MESQUITE CLEAR N/A N/A N/A CALM 30.21R  
LANCASTER CLOUDY 35 30 82 CALM 30.22R  

 
 
TXZ091>094-102>105-117-120-121-131>134-231500-  
NORTH CENTRAL TEXAS  
 
CITY SKY/WX TMP DP RH WIND PRES REMARKS
 
SHRMAN/DENISON CLOUDY 37 29 72 CALM 30.20S  
GAINESVILLE CLOUDY 33 28 80 CALM 30.20S  
BOWIE CLOUDY 35 28 77 CALM 30.17S  
BRIDGEPORT CLOUDY 33 30 86 CALM 30.19F  
DECATUR CLOUDY 43 20 40 SW5 30.16S  
DENTON PTCLDY 32 28 85 CALM 30.19S  
MCKINNEY CLOUDY 33 30 88 CALM 30.21R  
BONHAM CLOUDY 32 28 86 CALM 30.20S  
GREENVILLE CLOUDY 36 32 87 CALM 30.21S  
ROCKWALL CLOUDY 40 30 67 CALM 30.21R  
TERRELL PTCLDY 34 29 82 CALM 30.21S  
WAXAHACHIE CLOUDY 33 31 92 CALM 30.21S  
CLEBURNE CLOUDY 37 32 81 CALM 30.21R HAZE  
GRANBURY CLOUDY 33 30 89 CALM 30.22R  

 
 
TXZ083>090-098>101-113>116-127>130-139>142-154-155-231500-  
WESTERN NORTH TEXAS  
 
CITY SKY/WX TMP DP RH WIND PRES REMARKS
 
WICHITA FALLS CLOUDY 35 27 72 SW7 30.14F WCI 29  
WF-KICKAPOO CLOUDY 37 24 60 SW5 30.18S WCI 33  
VERNON CLOUDY 34 21 59 CALM 30.16S  
ABILENE CLOUDY 42 26 53 S7 30.18S WCI 38  
ABILENE-DYESS CLOUDY 36 32 83 CALM 30.17S  
GRAHAM N/A 33 29 82 CALM 30.17R  
BRECKENRIDGE CLOUDY 40 27 59 S5 30.18S WCI 37  
CISCO CLOUDY 43 23 45 SW8 30.18S WCI 38  
EASTLAND CLOUDY 32 28 86 CALM 30.18S  
RANGER CLOUDY 42 24 48 SW7 30.18S WCI 38  
MINERAL WELLS CLOUDY 33 27 78 CALM 30.17S  
STEPHENVILLE CLOUDY 37 29 71 CALM 30.21S  
COMANCHE CLOUDY 38 25 59 CALM 30.20R  
BROWNWOOD CLOUDY 32 27 80 CALM 30.21S  
COLEMAN CLOUDY 38 29 71 W3 30.20S  

 
 
TXZ143>147-156>162-174-175-231500-  
CENTRAL TEXAS  
 
CITY SKY/WX TMP DP RH WIND PRES REMARKS
 
WACO CLOUDY 34 30 85 CALM 30.22S  
WACO-TSTC CLEAR 36 28 75 CALM 30.23R  
WACO-MCGREGOR CLOUDY 36 28 73 CALM 30.22S  
HILLSBORO CLOUDY 38 32 81 CALM 30.20S  
CORSICANA CLOUDY 35 30 82 CALM 30.22R  
MEXIA CLOUDY 38 29 70 W6 30.21R WCI 33  
HEARNE CLOUDY 32 32 99 CALM 30.24R  
CAMERON CLOUDY 38 31 76 CALM 30.23R  
TEMPLE CLOUDY 33 28 81 CALM 30.23R  
KILLEEN CLEAR 40 28 62 CALM 30.20R  
KILLEEN-SKYLRK PTCLDY 37 31 78 CALM 30.22R  
FORT HOOD CLEAR 39 28 63 CALM 30.18R  
GATESVILLE CLOUDY 34 27 75 CALM 30.23S  
HAMILTON CLOUDY 40 28 63 CALM 30.20S HAZE  
LAMPASAS CLOUDY 38 32 80 CALM 30.20S  

 
 
TXZ095>097-106>112-122>126-135>138-148>153-164>167-231500-  
EAST TEXAS  
 
CITY SKY/WX TMP DP RH WIND PRES REMARKS
 
PARIS CLOUDY 35 30 82 N5 30.21R WCI 31  
SULPHUR SPRNGS CLOUDY 36 30 79 CALM 30.22S  
MOUNT PLEASANT MOSUNNY 32 31 96 CALM 30.23R  
GILMER MOSUNNY 34 32 92 CALM 30.21R  
MINEOLA CLOUDY 32 30 93 CALM 30.21R  
TYLER MOSUNNY 36 32 85 CALM 30.20S  
LONGVIEW MOSUNNY 35 34 96 CALM 30.21R  
MARSHALL MOSUNNY 33 31 94 CALM 30.24R  
ATHENS CLOUDY 32 30 93 CALM 30.21R  
PALESTINE CLOUDY 33 32 96 CALM 30.22S  
JACKSONVILLE MOSUNNY 42 30 62 CALM 30.21S  
HENDERSON MOSUNNY 33 32 95 CALM 30.22S  
CENTER MOSUNNY 32 31 94 CALM 30.23R  
NACOGDOCHES MOSUNNY 37 33 85 CALM 30.22S  
LUFKIN CLOUDY 36 35 96 CALM 30.22R  

 
 
SUPPLEMENTAL OBSERVATIONS (NWS FORT WORTH AREA)  
 
CITY SKY/WX TMP DP RH WIND PRES REMARKS
 
DENISON DAM N/A 41 32 70 CALM N/A  
CADDO GRASSLND N/A 32 30 93 CALM N/A  
PAT MAYSE LAKE N/A 32 30 93 N5 N/A WCI 27  
GREENVILLE N/A 36 30 80 W1 N/A  
CEDAR HILL N/A 45 25 45 S1 N/A  
LBJ GRASSLAND N/A 41 21 45 SE3 N/A  
POSSUM KINGDOM N/A 45 28 53 S2 N/A  
GRANBURY N/A 34 30 86 W1 N/A  
MCGREGOR N/A 37 28 70 SW1 N/A  
TEMPLE N/A 41 32 70 NW2 N/A  
ATHENS N/A 45 32 61 E1 N/A  

 
 
SUPPLEMENTAL OBSERVATIONS (NWS NORMAN AREA)  
 
CITY SKY/WX TMP DP RH WIND PRES REMARKS
 
GOODLETT N/A 39 26 58 NW6 30.15R WCI 35  
ODELL N/A 36 25 64 W3 30.16F  
CROWELL N/A 39 25 56 SW2 30.17R  
KNOX CITY N/A 40 27 61 S6 30.18R WCI 35  
SEYMOUR N/A 38 27 65 S3 30.17S  
MILLERS CREEK N/A 39 30 70 SW8 N/A WCI 34  

 
 
SUPPLEMENTAL OBSERVATIONS (NWS SAN ANGELO AREA)  
 
CITY SKY/WX TMP DP RH WIND PRES REMARKS
 
WEINERT N/A 42 26 53 S8 30.18S WCI 36  
HASKELL N/A 40 26 57 S7 30.18R WCI 35  
THROCKMORTON N/A 42 27 55 SW12 30.17S WCI 36  
STAMFORD N/A 41 27 57 S5 30.19S WCI 38  
CLYDE N/A 48 25 41 SW7 30.19S  
HAMBY N/A 45 27 49 S6 N/A  
IVIE RESERVOIR N/A 39 32 75 W6 N/A WCI 35  
COLORADO BEND N/A 37 27 65 CALM N/A  

 
 
SUPPLEMENTAL OBSERVATIONS (NWS SHREVEPORT AREA)  
 
CITY SKY/WX TMP DP RH WIND PRES REMARKS
 
CLARKSVILLE N/A 36 30 80 NE1 N/A  
TEXARKANA N/A 34 32 93 CALM N/A  
LINDEN N/A 32 28 86 CALM N/A  
CADDO LAKE N/A 30 30 100 CALM N/A  
GILMER N/A 36 32 87 CALM N/A  
HENDERSON N/A 39 36 87 CALM N/A  
LUFKIN N/A 39 34 81 MISG N/A  
N SABINE NF N/A 32 32 100 MISG N/A  
S SABINE NF N/A 36 34 93 CALM N/A  

 
 
SUPPLEMENTAL OBSERVATIONS ARE A COLLECTION OF AUTOMATED INSTRUMENTS  
THAT ARE MAINTAINED BY A VARIETY OF FEDERAL AND STATE AGENCIES.  
CERTAIN ELEMENTS...SUCH AS HUMIDITY VALUES AND SUSTAINED WIND  
SPEEDS...MAY BE APPROXIMATED.  
 
 
 
CLICK HERE TO GO TO PREVIOUS BULLETINS.

The Nexlab TX Page Main Text Page